Hourly Data Report for October 02, 2013

All times are specified in Local Standard Time (LST). Add 1 hour to adjust for Daylight Saving Time where and when it is observed.

GRISE FIORD CLIMATE
NUNAVUT

76°25'22.040" N
82°54'08.020" W
44.50 m
2402351
71971
NGC

Download Data

Hourly Data (October 2013)
Hourly Data Report for October 2, 2013
Temp Definition
°C
Dew Point Temp Definition
°C
Rel Hum Definition
%
Wind Dir Definition
10's deg

Wind Spd Definition
km/h
Visibility Definition
km
Stn Press Definition
kPa
Hmdx Definition


Wind Chill Definition


Weather Definition


TIME
00:00 -3.1 -9.5 61 2 30   100.56   -11 LegendNANA
01:00 -3.2 -9.7 61 1 48   100.50   -12 LegendNANA
02:00 -3.6 -9.8 62 33 32   100.62   -11 LegendNANA
03:00 -3.9 -10.4 61 35 37   100.64   -12 LegendNANA
04:00 -4.1 -10.3 62 1 43   100.64   -13 LegendNANA
05:00 -4.2 -10.7 60 2 41   100.67   -13 LegendNANA
06:00 -4.6 -10.9 61 35 26   100.77   -12 LegendNANA
07:00 -4.6 -10.8 62 34 30   100.77   -12 LegendNANA
08:00 -4.9 -11.0 62 36 43   100.79   -14 LegendNANA
09:00 -4.6 -11.1 60 36 30   100.82   -12 LegendNANA
10:00 -4.2 -11.3 58 1 32   100.82   -12 LegendNANA
11:00 -3.6 -11.0 56 2 33   100.81   -12 LegendNANA
12:00 -3.3 -10.9 56 1 26   100.87   -10 LegendNANA
13:00 -4.7 -11.8 58 36 32   100.91   -13 LegendNANA
14:00 -4.4 -11.9 56 34 39   100.87   -13 LegendNANA
15:00 -4.6 -12.1 56 16 9   100.96   -8 LegendNANA
16:00 -4.6 -12.6 54 36 22   101.03   -11 LegendNANA
17:00 -5.1 -13.3 53 30 28   101.05   -13 LegendNANA
18:00 -5.9 -13.5 55 36 43   101.02   -16 LegendNANA
19:00 -5.3 -13.1 54 1 30   101.04   -13 LegendNANA
20:00 -5.8 -13.2 56 1 43   101.09   -15 LegendNANA
21:00 -5.4 -13.1 55 1 41   101.05   -15 LegendNANA
22:00 -5.9 -13.1 57 1 32   101.08   -14 LegendNANA
23:00 -7.0 -13.4 60 1 44   101.11   -17 LegendNANA

Notes on Data Quality.

Legend

  • E = Estimated
  • M = Missing
  • NA = Not Available
  • ‡ = Partner data that is not subject to review by the National Climate Archives
Date modified: